Weather in Samuylovo

Russia / Smolensk Oblast     55°45′57″N   35°01′05″E
temp.,
°C
wind,
m/s
gust,
m/s
humid.,
%
clouds,
%
prec.,
mm/h
press.,
hPa
HPBL,
m
15 may, sat
sat1500:00+12e4109795 0.7 1009303
03:00+11ese3898100 0.7 1008196
06:00+12sse2798100 0.0 1007178
09:00+17ssw37835 0.7 1007510
12:00+20ssw455530 0.2 10071497
15:00+19s576655 1.7 10071371
18:00+17ssw47785 1.9 1007640
21:00+13s37935 1.9 1007126
16 may, sun
sun1600:00+11ssw310966 0.0 1008258
03:00+10ssw4109729 0.0 1009277
06:00+11ssw4119668 0.0 1010354
09:00+15ssw598038 0.0 1011738
12:00+17sw577876 1.6 10111165
15:00+18sw467729 4.6 10121031
18:00+18sw467948 1.7 1012500
21:00+13sw22915 2.0 101314
17 may, mon
mon1700:00+12ssw119237 0.0 101410
03:00+11se2293100 0.0 101522
06:00+12ese259399 0.0 1015101
09:00+17ese4778100 0.0 1014400
12:00+22ese475765 0.0 10121133
15:00+24ese595470 0.0 10111544
18:00+22ese51169100 0.0 1009880
21:00+19ese5148395 0.0 1008532
18 may, tue
tue1800:00+17ese5148781 0.0 1007472
03:00+15ese4129130 0.0 1007356
06:00+15ese5138796 0.0 1006374
09:00+20se5127183 0.0 1005625
12:00+24se6136273 0.0 10041290
15:00+24sse61264100 0.4 10041628
18:00+21sse6137599 0.9 10031393
21:00+17sse51385100 2.9 1003530
19 may, wed
wed1900:00+14sse412915 0.0 1002441
03:00+13se4119719 0.0 1002344
06:00+14se61394100 0.0 1002723
09:00+15sse6108893 0.4 1003938
12:00+15s6970100 0.4 10041403
15:00+17s7116465 0.7 10041691
18:00+15s511725 0.4 10041471
21:00+11sse5138968 1.3 1004758